Weather History for Soldotna, AK

Change the Weather History Date:

Sunday, May 4, 2014

  Actual Average Record
Temperature  
Mean Temperature 47 °F -  
Max Temperature 62 °F 47 °F 66 °F (2004)
Min Temperature 32 °F 33 °F 18 °F (1965)
Degree Days  
Heating Degree Days 18    
Moisture  
Dew Point 34 °F    
Average Humidity 59    
Maximum Humidity 81    
Minimum Humidity 39    
Precipitation  
Precipitation 0.00 in - - ()
Sea Level Pressure  
Sea Level Pressure 29.90 in    
Wind  
Wind Speed 5 mph (West)    
Max Wind Speed 23 mph    
Max Gust Speed 29 mph    
Visibility 10 miles    
Events      
Averages and records for this station are not official NWS values.
T = Trace of Precipitation, MM = Missing Value Source: NWS Daily Summary

Daily Weather History Graph

Daily Weather History Graph

Search for Another Location

Airport:

Trip Planner

Search our weather history database for the weather conditions in past years. The results will help you decide how hot, cold, wet, or windy it might be!

Date:

Astronomy

May. 04, 2014 Rise Set
Actual Time 5:50 AM AKDT 10:12 PM AKDT
Civil Twilight 4:53 AM AKDT 11:10 PM AKDT
Nautical Twilight 3:16 AM AKDT 12:51 AM AKDT
Astronomical Twilight Sun does not rise Sun does not rise
Moon 10:20 AM AKDT (5/4) 2:30 AM AKDT (5/4)
Length of Visible Light 18h 16m
Length of Day
16h 22m
Waxing Crescent, 29% of the Moon is Illuminated
May 4
Waxing Crescent
May 6
First Quarter
May 14
Full
May 21
Last Quarter
May 28
New

Hourly Weather History & Observations

Time (AKDT) Temp. Windchill Dew Point Humidity Pressure Visibility Wind Dir Wind Speed Gust Speed Precip Events Conditions
12:16 AM 44.6 °F 43.1 °F 35.6 °F 71% 29.97 in 10.0 mi ENE 3.5 mph - N/A   Clear
12:36 AM 41.0 °F 39.0 °F 32.0 °F 70% 29.96 in 10.0 mi East 3.5 mph - N/A   Clear
12:56 AM 39.2 °F - 30.2 °F 70% 29.97 in 10.0 mi Calm Calm - N/A   Clear
1:16 AM 39.2 °F 35.9 °F 30.2 °F 70% 29.96 in 10.0 mi East 4.6 mph - N/A   Clear
1:36 AM 39.2 °F 37.0 °F 33.8 °F 81% 29.96 in 10.0 mi ENE 3.5 mph - N/A   Clear
1:56 AM 37.4 °F 34.9 °F 30.2 °F 75% 29.96 in 10.0 mi ENE 3.5 mph - N/A   Clear
2:16 AM 37.4 °F - 30.2 °F 75% 29.96 in 10.0 mi Calm Calm - N/A   Clear
2:36 AM 35.6 °F - 28.4 °F 75% 29.96 in 10.0 mi Calm Calm - N/A   Clear
2:56 AM 35.6 °F - 30.2 °F 81% 29.96 in 10.0 mi Calm Calm - N/A   Clear
3:16 AM 35.6 °F 32.8 °F 28.4 °F 75% 29.95 in 10.0 mi ENE 3.5 mph - N/A   Clear
3:36 AM 33.8 °F 30.8 °F 26.6 °F 75% 29.95 in 10.0 mi ENE 3.5 mph - N/A   Clear
3:56 AM 33.8 °F - 28.4 °F 81% 29.95 in 10.0 mi Calm Calm - N/A   Clear
4:16 AM 33.8 °F - 28.4 °F 81% 29.95 in 10.0 mi Calm Calm - N/A   Clear
4:36 AM 32.0 °F 28.7 °F 26.6 °F 80% 29.94 in 10.0 mi NE 3.5 mph - N/A   Clear
4:56 AM 33.8 °F 30.8 °F 28.4 °F 81% 29.94 in 10.0 mi ENE 3.5 mph - N/A   Clear
5:16 AM 33.8 °F 30.8 °F 28.4 °F 81% 29.94 in 10.0 mi ENE 3.5 mph - N/A   Clear
5:36 AM 33.8 °F 30.8 °F 28.4 °F 81% 29.94 in 10.0 mi NE 3.5 mph - N/A   Clear
5:56 AM 33.8 °F 30.8 °F 28.4 °F 81% 29.94 in 10.0 mi ENE 3.5 mph - N/A   Clear
6:16 AM 32.0 °F - 26.6 °F 80% 29.94 in 10.0 mi Calm Calm - N/A   Clear
6:36 AM 32.0 °F 28.7 °F 26.6 °F 80% 29.94 in 10.0 mi ENE 3.5 mph - N/A   Clear
6:56 AM 33.8 °F - 28.4 °F 81% 29.94 in 10.0 mi Calm Calm - N/A   Clear
7:16 AM 33.8 °F - 28.4 °F 81% 29.94 in 10.0 mi Calm Calm - N/A   Clear
7:36 AM 35.6 °F - 30.2 °F 81% 29.94 in 10.0 mi Calm Calm - N/A   Clear
7:56 AM 37.4 °F 34.9 °F 30.2 °F 75% 29.94 in 10.0 mi East 3.5 mph - N/A   Clear
8:16 AM 39.2 °F - 32.0 °F 75% 29.93 in 10.0 mi Calm Calm - N/A   Clear
8:36 AM 42.8 °F - 33.8 °F 70% 29.93 in 10.0 mi Calm Calm - N/A   Clear
8:56 AM 44.6 °F 42.2 °F 35.6 °F 71% 29.93 in 10.0 mi East 4.6 mph - N/A   Clear
9:16 AM 48.2 °F - 35.6 °F 62% 29.93 in 10.0 mi Calm Calm - N/A   Clear
9:36 AM 50.0 °F - 35.6 °F 58% 29.92 in 10.0 mi Calm Calm - N/A   Clear
9:56 AM 53.6 °F - 37.4 °F 54% 29.92 in 10.0 mi Calm Calm - N/A   Clear
10:16 AM 55.4 °F - 37.4 °F 51% 29.92 in 10.0 mi Calm Calm - N/A   Clear
10:36 AM 57.2 °F - 37.4 °F 48% 29.91 in 10.0 mi West 3.5 mph - N/A   Clear
10:56 AM 57.2 °F - 37.4 °F 48% 29.91 in 10.0 mi NW 5.8 mph - N/A   Clear
11:16 AM 59.0 °F - 39.2 °F 48% 29.90 in 10.0 mi NW 6.9 mph - N/A   Clear
11:36 AM 59.0 °F - 39.2 °F 48% 29.90 in 10.0 mi WNW 6.9 mph - N/A   Clear
11:56 AM 57.2 °F - 39.2 °F 51% 29.90 in 10.0 mi NW 9.2 mph - N/A   Clear
12:16 PM 57.2 °F - 39.2 °F 51% 29.90 in 10.0 mi West 15.0 mph - N/A   Clear
12:36 PM 55.4 °F - 37.4 °F 51% 29.90 in 10.0 mi West 10.4 mph - N/A   Clear
12:56 PM 55.4 °F - 39.2 °F 54% 29.90 in 10.0 mi WNW 12.7 mph - N/A   Clear
1:16 PM 55.4 °F - 39.2 °F 54% 29.90 in 10.0 mi West 11.5 mph - N/A   Clear
1:36 PM 57.2 °F - 39.2 °F 51% 29.89 in 10.0 mi WNW 10.4 mph - N/A   Clear
1:56 PM 57.2 °F - 39.2 °F 51% 29.89 in 10.0 mi WNW 8.1 mph - N/A   Clear
2:16 PM 57.2 °F - 39.2 °F 51% 29.88 in 10.0 mi West 12.7 mph - N/A   Clear
2:36 PM 57.2 °F - 39.2 °F 51% 29.88 in 10.0 mi WNW 11.5 mph - N/A   Clear
2:56 PM 57.2 °F - 39.2 °F 51% 29.88 in 10.0 mi West 11.5 mph - N/A   Clear
3:16 PM 57.2 °F - 39.2 °F 51% 29.87 in 10.0 mi WNW 11.5 mph - N/A   Clear
3:36 PM 59.0 °F - 39.2 °F 48% 29.87 in 10.0 mi WNW 9.2 mph - N/A   Clear
3:56 PM 59.0 °F - 39.2 °F 48% 29.86 in 10.0 mi WNW 11.5 mph - N/A   Clear
4:16 PM 60.8 °F - 41.0 °F 48% 29.86 in 10.0 mi West 11.5 mph - N/A   Clear
4:36 PM 62.6 °F - 39.2 °F 42% 29.86 in 10.0 mi West 16.1 mph - N/A   Clear
4:56 PM 62.6 °F - 39.2 °F 42% 29.85 in 10.0 mi WSW 23.0 mph 28.8 mph N/A   Clear
5:16 PM 62.6 °F - 37.4 °F 39% 29.85 in 10.0 mi West 17.3 mph 28.8 mph N/A   Clear
5:36 PM 60.8 °F - 37.4 °F 42% 29.85 in 10.0 mi West 18.4 mph - N/A   Clear
5:56 PM 62.6 °F - 39.2 °F 42% 29.84 in 10.0 mi WSW 13.8 mph - N/A   Clear
6:16 PM 62.6 °F - 37.4 °F 39% 29.84 in 10.0 mi WSW 13.8 mph 21.9 mph N/A   Clear
6:36 PM 60.8 °F - 37.4 °F 42% 29.84 in 10.0 mi WSW 16.1 mph 23.0 mph N/A   Clear
6:56 PM 60.8 °F - 37.4 °F 42% 29.84 in 10.0 mi WSW 16.1 mph - N/A   Clear
7:16 PM 60.8 °F - 37.4 °F 42% 29.84 in 10.0 mi WSW 13.8 mph 19.6 mph N/A   Clear
7:36 PM 59.0 °F - 35.6 °F 42% 29.84 in 10.0 mi WSW 17.3 mph 20.7 mph N/A   Clear
7:56 PM 57.2 °F - 35.6 °F 44% 29.84 in 10.0 mi SW 15.0 mph 24.2 mph N/A   Clear
8:16 PM 57.2 °F - 35.6 °F 44% 29.84 in 10.0 mi WSW 13.8 mph 21.9 mph N/A   Clear
8:36 PM 57.2 °F - 35.6 °F 44% 29.84 in 10.0 mi WSW 13.8 mph - N/A   Clear
8:56 PM 55.4 °F - 35.6 °F 47% 29.84 in 10.0 mi SW 12.7 mph 19.6 mph N/A   Clear
9:16 PM 55.4 °F - 35.6 °F 47% 29.84 in 10.0 mi SW 9.2 mph - N/A   Clear
9:36 PM 55.4 °F - 33.8 °F 44% 29.84 in 10.0 mi SW 10.4 mph - N/A   Clear
9:56 PM 53.6 °F - 33.8 °F 47% 29.84 in 10.0 mi SW 11.5 mph - N/A   Clear
10:16 PM 53.6 °F - 33.8 °F 47% 29.85 in 10.0 mi WSW 5.8 mph - N/A   Clear
10:36 PM 53.6 °F - 33.8 °F 47% 29.85 in 10.0 mi SW 6.9 mph - N/A   Clear
10:56 PM 53.6 °F - 32.0 °F 44% 29.85 in 10.0 mi SSW 4.6 mph - N/A   Clear
11:16 PM 51.8 °F - 32.0 °F 47% 29.86 in 10.0 mi South 6.9 mph - N/A   Clear
11:36 PM 51.8 °F - 32.0 °F 47% 29.85 in 10.0 mi South 8.1 mph - N/A   Clear
11:56 PM 51.8 °F - 32.0 °F 47% 29.85 in 10.0 mi South 5.8 mph - N/A   Clear